This is the latest recevied weather packets stored in our database for station/object HARMAJA. If no packets are shown the sender has not sent any weather packets the latest 10 day(s).
| Time | Temp. | Humidity | Pressure | Rain* | Wind** | Luminosity | Snow |
|---|---|---|---|---|---|---|---|
| 1777438006 | 3.33° C | 58% | 1024.8 hPa | - | - | - | - |
| 1777436806 | 3.33° C | 59% | 1024.6 hPa | - | - | - | - |
| 1777435605 | 3.33° C | 61% | 1024.5 hPa | - | - | - | - |
| 1777434406 | 3.33° C | 61% | 1024.3 hPa | - | - | - | - |
| 1777422405 | 3.33° C | 59% | 1023 hPa | - | - | - | - |
| 1777420005 | 3.33° C | 60% | 1022.9 hPa | - | - | - | - |
| 1777418805 | 3.33° C | 57% | 1022.8 hPa | - | - | - | - |
| 1777415206 | 3.33° C | 57% | 1022.5 hPa | - | - | - | - |
| 1777410405 | 3.33° C | 57% | 1022 hPa | - | - | - | - |
| 1777408005 | 3.89° C | 57% | 1021.9 hPa | - | - | - | - |
| 1777406804 | 3.89° C | 58% | 1021.9 hPa | - | - | - | - |
| 1777404404 | 4.44° C | 56% | 1021.7 hPa | - | - | - | - |
| 1777403204 | 4.44° C | 51% | 1021.5 hPa | - | - | - | - |
| 1777399604 | 5° C | 52% | 1021 hPa | - | - | - | - |
| 1777386403 | 5.56° C | 48% | 1019.3 hPa | - | - | - | - |
| 1777385203 | 5.56° C | 47% | 1019.2 hPa | - | - | - | - |
| 1777384003 | 5.56° C | 50% | 1019.1 hPa | - | - | - | - |
| 1777382803 | 5.56° C | 49% | 1018.9 hPa | - | - | - | - |
| 1777380403 | 5.56° C | 49% | 1018.8 hPa | - | - | - | - |
| 1777379202 | 5.56° C | 51% | 1018.7 hPa | - | - | - | - |
| 1777378002 | 5° C | 54% | 1018.6 hPa | - | - | - | - |
| 1777375603 | 5.56° C | 49% | 1018.4 hPa | - | - | - | - |
| 1777374402 | 5° C | 49% | 1018.4 hPa | - | - | - | - |
| 1777372002 | 5° C | 50% | 1018.2 hPa | - | - | - | - |
| 1777370802 | 4.44° C | 50% | 1018.2 hPa | - | - | - | - |
* Rain since midnight (hover to see other rain measurements)
** Current wind speed in m/s (hover to see current wind gust speed)